Flight Track Log - Related Links

Times and Time Zones

All times are in EDT time to prevent confusion due to time zone crossing. See the N3506Y flight status page for this flight to view local times or setup timezone preferences in your user account.

Time Position Orientation Groundspeed Altitude Reporting Facility
EDT Latitude Longitude Course Direction KTS MPH feet Rate Location/Type
Sat 10:55:32 AM 45.0000 -92.7667 38° Northeast 102 117 3,100  Level Minneapolis TRACON
Sat 10:56:04 AM 45.0161 -92.7533 30° Northeast 102 117 3,400 702 Climbing Minneapolis Center
Sat 10:57:06 AM 45.0414 -92.7328 30° Northeast 104 120 4,200 726 Climbing Minneapolis Center
Sat 10:58:08 AM 45.0636 -92.7114 34° Northeast 98 113 4,900 387 Climbing Minneapolis Center
Sat 10:59:00 AM 45.1357 -92.6786 38° Northeast  Level FlightAware
Sat 10:59:10 AM 45.0917 -92.6844 34° Northeast 121 139 5,000  Level Minneapolis Center
Sat 11:00:00 AM 45.1663 -92.6443 38° Northeast  Level FlightAware
Sat 11:00:11 AM 45.1228 -92.6533 35° Northeast 136 157 4,800  Level Minneapolis Center
Sat 11:01:13 AM 45.1633 -92.6319 20° North 137 158 4,900 48 Climbing Minneapolis Center
Sat 11:02:15 AM 45.1925 -92.5981 39° Northeast 136 157 4,900  Level Minneapolis Center
Sat 11:03:17 AM 45.2250 -92.5689 32° Northeast 138 159 4,900 -48 Level Minneapolis Center
Sat 11:04:19 AM 45.2567 -92.5372 35° Northeast 139 160 4,800 -48 Descending Minneapolis Center
Sat 11:05:21 AM 45.2881 -92.5050 36° Northeast 140 161 4,800  Level Minneapolis Center
Sat 11:06:23 AM 45.3178 -92.4706 39° Northeast 139 160 4,800  Level Minneapolis Center
Sat 11:07:25 AM 45.3547 -92.4294 38° Northeast 140 161 4,800  Level Minneapolis Center
Sat 11:08:27 AM 45.3856 -92.3931 40° Northeast 143 165 4,800 49 Level Minneapolis Center
Sat 11:09:28 AM 45.4181 -92.3597 36° Northeast 143 165 4,900 49 Climbing Minneapolis Center
Sat 11:10:30 AM 45.4489 -92.3233 40° Northeast 143 165 4,900  Level Minneapolis Center
Sat 11:11:32 AM 45.4806 -92.2869 39° Northeast 145 167 4,900  Level Minneapolis Center
Sat 11:12:34 AM 45.5119 -92.2519 38° Northeast 145 167 4,900  Level Minneapolis Center
Sat 11:13:36 AM 45.5425 -92.2156 40° Northeast 143 165 4,900  Level Minneapolis Center
Sat 11:14:38 AM 45.5789 -92.1719 40° Northeast 142 163 4,900  Level Minneapolis Center
Sat 11:15:39 AM 45.6022 -92.1433 41° Northeast 140 161 4,900  Level Minneapolis Center
Sat 11:16:41 AM 45.6392 -92.1028 38° Northeast 140 161 4,900  Level Minneapolis Center
Sat 11:17:43 AM 45.6692 -92.0675 39° Northeast 140 161 4,900  Level Minneapolis Center
Sat 11:18:45 AM 45.6997 -92.0333 38° Northeast 140 161 4,900  Level Minneapolis Center
Sat 11:19:47 AM 45.7303 -91.9981 39° Northeast 140 161 4,900  Level Minneapolis Center
Sat 11:20:49 AM 45.7678 -91.9589 36° Northeast 140 161 4,900  Level Minneapolis Center
Sat 11:21:51 AM 45.7983 -91.9242 38° Northeast 140 161 4,900  Level Minneapolis Center
Sat 11:22:52 AM 45.8292 -91.8881 39° Northeast 141 162 4,900  Level Minneapolis Center
Sat 11:23:54 AM 45.8586 -91.8514 41° Northeast 141 162 4,900  Level Minneapolis Center
Sat 11:24:56 AM 45.8900 -91.8164 38° Northeast 142 163 4,900  Level Minneapolis Center
Sat 11:25:58 AM 45.9197 -91.7789 41° Northeast 142 163 4,900  Level Minneapolis Center
Sat 11:27:00 AM 45.9506 -91.7433 39° Northeast 142 163 4,900  Level Minneapolis Center
Sat 11:28:02 AM 45.9889 -91.7014 37° Northeast 143 165 4,900  Level Minneapolis Center
Sat 11:30:00 AM 46.0467 -91.6291 41° Northeast  Level FlightAware
Sat 11:35:02 AM 46.2017 -91.4561 39° Northeast 144 166 4,900  Level Minneapolis Center
Sat 11:36:03 AM 46.2322 -91.4208 39° Northeast 136 157 4,900  Level Minneapolis Center
Sat 11:37:00 AM 46.2576 -91.3797 39° Northeast  Level FlightAware
Sat 11:37:05 AM 46.2664 -91.3814 39° Northeast 138 159 4,900  Level Minneapolis Center
Sat 11:38:00 AM 46.2879 -91.3442 39° Northeast  Level FlightAware
Sat 11:38:07 AM 46.3017 -91.3419 38° Northeast 140 161 4,900  Level Minneapolis Center
Sat 11:39:00 AM 46.3181 -91.3087 39° Northeast  Level FlightAware
Sat 11:39:09 AM 46.3322 -91.3042 40° Northeast 144 166 4,900  Level Minneapolis Center
Sat 11:40:00 AM 46.3483 -91.2731 39° Northeast  Level FlightAware
Sat 11:40:11 AM 46.3642 -91.2678 38° Northeast 145 167 4,900  Level Minneapolis Center
Sat 11:41:12 AM 46.3967 -91.2281 40° Northeast 147 169 4,900  Level Minneapolis Center
Sat 11:42:14 AM 46.4283 -91.1931 37° Northeast 147 169 4,900 -290 Level Minneapolis Center
Sat 11:43:16 AM 46.4600 -91.1544 40° Northeast 147 169 4,300 -581 Descending Minneapolis Center
Sat 11:45:00 AM 46.5050 -91.0874 40° Northeast  Level FlightAware
Sat 11:52:00 AM 46.7023 -90.8432 41° Northeast  Level FlightAware
Sat 11:53:00 AM 46.7304 -90.8080 41° Northeast  Level FlightAware

Login

Don't have an account? Register now (free) for customized features, flight alerts, and more!